Eau Claire, WI

11:50 PM CDT on October 16, 2017 (GMT -0500)
Chippewa Valley Regional

Weather History for KEAU - November, 2012

Change the Weather History Date:

Monday, November 5, 2012

  Actual Average Record
Temperature  
Mean Temperature 40 °F 39 °F  
Max Temperature 46 °F 48 °F 72 °F (2016)
Min Temperature 33 °F 30 °F -2 °F (1951)
Degree Days  
Heating Degree Days 25 26  
Month to date heating degree days 141 126  
Since 1 July heating degree days 994 910  
Cooling Degree Days 0 0  
Month to date cooling degree days 0 0  
Year to date cooling degree days 830 579  
Moisture  
Dew Point 27 °F    
Average Humidity 62    
Maximum Humidity 75    
Minimum Humidity 49    
Precipitation  
Precipitation 0.00 in 0.07 in 1.38 in (1948)
Month to date precipitation T 0.32  
Year to date precipitation 21.71 28.46  
Snow  
Snow 0.00 in 0.10 in 3.00 in (1935)
Month to date snowfall T 0.5  
Since 1 July snowfall T 0.9  
Since 1 September snowfall T 0.9  
Snow Depth 0.00 in    
Sea Level Pressure  
Sea Level Pressure 30.17 in    
Wind  
Wind Speed 6 mph (SE)    
Max Wind Speed 13 mph    
Max Gust Speed 16 mph    
Visibility 10 miles    
Events      
T = Trace of Precipitation, MM = Missing Value Source: NWS Daily Summary

Daily Weather History Graph

Daily Weather History Graph

Search for Another Location

Airport or City:

Trip Planner

Search our weather history database for the weather conditions in past years. The results will help you decide how hot, cold, wet, or windy it might be!

Date:

Astronomy

Nov. 05, 2012 Rise Set
Actual Time 6:50 AM CST 4:48 PM CST
Civil Twilight 6:19 AM CST 5:19 PM CST
Nautical Twilight 5:44 AM CST 5:53 PM CST
Astronomical Twilight 5:10 AM CST 6:28 PM CST
Moon 10:26 PM CST (11/5) 12:10 PM CST (11/5)
Length of Visible Light 10h 59m
Length of Day
9h 57m
Waning Gibbous, 62% of the Moon is Illuminated
Nov 5
Waning Gibbous
Nov 6
Last Quarter
Nov 13
New
Nov 20
First Quarter
Nov 28
Full

Hourly Weather History & Observations

Time (CST) Temp. Windchill Dew Point Humidity Pressure Visibility Wind Dir Wind Speed Gust Speed Precip Events Conditions
12:56 AM 35.1 °F 30.1 °F 25.0 °F 67% 30.21 in 10.0 mi ESE 5.8 mph - N/A   Overcast
1:56 AM 35.1 °F 28.6 °F 25.0 °F 67% 30.22 in 10.0 mi ENE 8.1 mph - N/A   Overcast
2:56 AM 35.1 °F 31.0 °F 25.0 °F 67% 30.22 in 10.0 mi ENE 4.6 mph - N/A   Overcast
3:56 AM 34.0 °F 29.8 °F 26.1 °F 73% 30.22 in 10.0 mi NE 4.6 mph - N/A   Overcast
4:56 AM 35.1 °F 31.0 °F 25.0 °F 67% 30.23 in 10.0 mi ENE 4.6 mph - N/A   Overcast
5:56 AM 34.0 °F 28.8 °F 25.0 °F 70% 30.23 in 10.0 mi ENE 5.8 mph - N/A   Overcast
6:56 AM 33.1 °F 28.7 °F 25.0 °F 72% 30.23 in 10.0 mi ENE 4.6 mph - N/A   Overcast
7:56 AM 34.0 °F 28.0 °F 25.0 °F 70% 30.24 in 10.0 mi East 6.9 mph - N/A   Overcast
8:56 AM 35.1 °F 28.6 °F 26.1 °F 70% 30.25 in 10.0 mi ESE 8.1 mph - N/A   Overcast
9:56 AM 37.9 °F 32.7 °F 26.1 °F 62% 30.24 in 10.0 mi SE 6.9 mph - N/A   Clear
10:56 AM 42.1 °F 37.7 °F 27.0 °F 55% 30.23 in 10.0 mi South 6.9 mph - N/A   Clear
11:56 AM 44.1 °F 40.8 °F 27.0 °F 51% 30.21 in 10.0 mi South 5.8 mph - N/A   Clear
12:56 PM 44.1 °F - 27.0 °F 51% 30.19 in 10.0 mi Calm Calm - N/A   Overcast
1:56 PM 45.0 °F 41.8 °F 27.0 °F 49% 30.16 in 10.0 mi South 5.8 mph - N/A   Overcast
2:56 PM 45.0 °F 43.5 °F 27.0 °F 49% 30.15 in 10.0 mi SSW 3.5 mph - N/A   Overcast
3:56 PM 44.1 °F 42.5 °F 28.0 °F 53% 30.14 in 10.0 mi SW 3.5 mph - N/A   Overcast
4:56 PM 42.1 °F - 28.0 °F 58% 30.13 in 10.0 mi Calm Calm - N/A   Overcast
5:56 PM 42.1 °F - 28.9 °F 60% 30.13 in 10.0 mi Calm Calm - N/A   Overcast
6:56 PM 39.9 °F - 28.9 °F 65% 30.12 in 10.0 mi Calm Calm - N/A   Overcast
7:56 PM 41.0 °F 35.8 °F 27.0 °F 57% 30.09 in 10.0 mi SSE 8.1 mph - N/A   Overcast
8:56 PM 39.9 °F 33.9 °F 27.0 °F 60% 30.07 in 10.0 mi SSE 9.2 mph - N/A   Mostly Cloudy
9:56 PM 39.9 °F 33.4 °F 27.0 °F 60% 30.06 in 10.0 mi South 10.4 mph - N/A   Overcast
10:56 PM 39.0 °F 32.3 °F 26.1 °F 60% 30.03 in 10.0 mi South 10.4 mph - N/A   Overcast
11:56 PM 39.0 °F 32.3 °F 27.0 °F 62% 30.01 in 10.0 mi SSE 10.4 mph - N/A   Overcast